[[{"header":{"parameterUnit":"m.s-1","parameterCategory":1,"la1":30.2991,"la2":30.254,"lo1":-89.0895,"lo2":-89.0444,"dy":0.0017,"dx":0.0017,"nx":28,"ny":28,"refTime":"2024-12-04T09:00:00:Z","depth":0,"parameterNumber":2,"parameterNumberName":"U-component_of_WINDS"},"data":[0,0,0,0,0,0,0,0,0,0,0,0,0,0,0,0,0,0,0,0,0,0,0,0,0,0,0,0,0,0,0,0,0,0,0,0,0,0,0,0,0,0,0,0,0,0,0,0,0,0,0,0,0,0,0,0,0,0,-4.8428,-4.8428,0,-4.8407,-4.8406,-4.8406,-4.8302,-4.8299,-4.8297,-4.8295,-4.8275,-4.8276,-4.8278,0,0,0,0,0,0,0,0,0,0,0,0,0,-4.8381,-4.8382,-4.8428,-4.8428,-4.8427,-4.8407,-4.8406,-4.8406,-4.8302,-4.8299,-4.8296,-4.8294,-4.8274,-4.8276,-4.8278,0,0,0,0,0,0,0,0,0,0,0,0,0,-4.8385,-4.8383,-4.8428,-4.8373,-4.8368,-4.8407,-4.8406,-4.8406,-4.8303,-4.8299,-4.8296,-4.8292,-4.8273,-4.8276,-4.8279,-4.8369,0,0,-4.8287,-4.8288,0,0,0,0,0,0,0,0,-4.8385,-4.8387,-4.8382,-4.8377,-4.8371,-4.8353,-4.8382,-4.8394,-4.8304,-4.8328,-4.8295,-4.829,-4.8304,-4.8304,-4.8308,-4.8368,-4.8367,-4.8287,-4.8288,-4.829,-4.829,0,0,0,0,0,0,0,-4.8385,-4.8387,-4.8419,-4.8382,-4.8375,-4.835,-4.8347,-4.8384,-4.8337,-4.8325,-4.8318,-4.8317,-4.83,-4.8306,-4.8307,-4.8367,-4.8287,-4.8289,-4.8291,-4.8292,-4.8498,-4.8502,0,0,0,0,0,0,-4.8392,-4.8388,-4.842,-4.8419,-4.8369,-4.8354,-4.835,-4.8363,-4.8336,-4.8328,-4.832,-4.8312,-4.8303,-4.8304,-4.8306,-4.8407,-4.829,-4.8292,-4.8294,-4.8494,-4.8499,-4.8503,0,0,0,0,0,0,-4.8391,-4.8396,-4.8421,-4.8401,-4.8402,-4.8359,-4.8374,-4.8364,-4.8369,-4.8332,-4.8323,-4.8333,-4.83,-4.8302,-4.8353,-4.8405,-4.8293,-4.8296,-4.8489,-4.8495,-4.8501,-4.8612,0,0,0,0,0,0,-4.839,-4.8396,-4.8429,-4.8403,-4.8404,-4.8469,-4.8377,-4.8366,-4.8374,-4.8363,-4.8342,-4.8335,-4.8297,-4.835,-4.8356,-4.8406,-4.8298,-4.8484,-4.8492,-4.8499,-4.8603,-4.8621,-4.8636,0,0,0,0,0,-4.8389,-4.8463,-4.8432,-4.8436,-4.8444,-4.8472,-4.8473,-4.8426,-4.8379,-4.8411,-4.8388,-4.8336,-4.8399,-4.8356,-4.8362,-4.8414,-4.8481,-4.849,-4.8498,-4.8596,-4.8617,-4.8636,0,0,0,0,0,0,-4.8497,-4.8458,-4.8423,-4.849,-4.8485,-4.8454,-4.8494,-4.8451,-4.846,-4.845,-4.8393,-4.8389,-4.8449,-4.8437,-4.839,-4.8499,-4.8431,-4.8442,-4.8504,-4.8524,-4.854,-4.8539,-4.83,0,0,0,0,0,-4.8529,-4.8554,-4.8519,-4.8581,-4.858,-4.8539,-4.8549,-4.8514,-4.8506,-4.8504,-4.8483,-4.8479,-4.8497,-4.8511,-4.8526,-4.8603,-4.8596,-4.8642,-4.8658,-4.8672,-4.868,-4.8718,-4.8737,-4.8532,-4.8532,-4.8531,0,0,-4.8594,-4.8576,-4.8595,-4.8602,-4.8594,-4.8621,-4.8537,-4.857,-4.8589,-4.8509,-4.8554,-4.8541,-4.8532,-4.8596,-4.8623,-4.8588,-4.8736,-4.8683,-4.8694,-4.8694,-4.8729,-4.8748,-4.8765,-4.8538,-4.8536,-4.8536,0,0,-4.8726,-4.8716,-4.8765,-4.8759,-4.8748,-4.8719,-4.8732,-4.8708,-4.8694,-4.874,-4.868,-4.8703,-4.8737,-4.8732,-4.8734,-4.8866,-4.8818,-4.8873,-4.8956,-4.8994,-4.901,-4.9024,-4.9067,-4.9084,-4.8883,-4.8883,-4.8883,0,-4.8809,-4.8846,-4.8797,-4.8832,-4.8837,-4.8766,-4.8815,-4.8812,-4.8807,-4.8811,-4.8773,-4.8812,-4.8802,-4.8862,-4.8895,-4.89,-4.8911,-4.8873,-4.9011,-4.9025,-4.9037,-4.9078,-4.9095,-4.8889,-4.8889,-4.8888,-4.8887,0,-4.8947,-4.8974,-4.9016,-4.901,-4.902,-4.9063,-4.902,-4.9036,-4.9002,-4.8978,-4.9025,-4.901,-4.902,-4.9033,-4.9,-4.9089,-4.9067,-4.9022,-4.8951,-4.9064,-4.9101,-4.9117,-4.8899,-4.8896,-4.8894,-4.8893,0,0,-4.9142,-4.911,-4.9126,-4.9122,-4.9105,-4.9125,-4.9166,-4.9174,-4.9188,-4.9188,-4.9219,-4.925,-4.9206,-4.9209,-4.9176,-4.9209,-4.9311,-4.9158,-4.9157,-4.9184,-4.9405,-4.9436,-4.9455,-4.9281,-4.9284,-4.9286,-4.9404,0,-4.9265,-4.9329,-4.9287,-4.9358,-4.9381,-4.9315,-4.935,-4.9344,-4.9323,-4.9341,-4.9319,-4.934,-4.9283,-4.9284,-4.9315,-4.9292,-4.9354,-4.9283,-4.9307,-4.9308,-4.9307,-4.9475,-4.9509,-4.9621,-4.9419,-4.9422,-4.9423,0,-4.9416,-4.942,-4.9494,-4.9471,-4.9479,-4.9511,-4.9514,-4.9533,-4.9525,-4.9507,-4.9511,-4.9469,-4.9507,-4.9441,-4.9491,-4.9445,-4.9453,-4.9443,-4.9447,-4.9443,-4.937,-4.9473,-4.9656,-4.9671,-4.9447,-4.9445,-4.9443,0,-4.9546,-4.9572,-4.9618,-4.9618,-4.9593,-4.9616,-4.9608,-4.9596,-4.9604,-4.9608,-4.9613,-4.9623,-4.9627,-4.9636,-4.9598,-4.9554,-4.9653,-4.9585,-4.9638,-4.9639,-4.9657,-4.9656,-4.984,-4.9671,-4.967,-4.967,-4.967,0,-4.9685,-4.9732,-4.9676,-4.9704,-4.9754,-4.9706,-4.9757,-4.9742,-4.9732,-4.9756,-4.9702,-4.9726,-4.9676,-4.9695,-4.9666,-4.9711,-4.9714,-4.97,-4.9691,-4.9703,-4.9704,-4.9704,-4.9693,-4.9674,-4.9674,-4.9673,-4.9672,0,-4.9837,-4.9802,-4.9847,-4.9821,-4.9815,-4.9853,-4.983,-4.9855,-4.9833,-4.9863,-4.9868,-4.9832,-4.9851,-4.9815,-4.9831,-4.9812,-4.9873,-4.9854,-4.9875,-4.9867,-4.9921,-4.9915,-5.0108,-5.0129,-4.9951,-4.9952,-4.9954,0,-4.9925,-4.9959,-4.9936,-4.9948,-4.9941,-4.9962,-4.9969,-4.9925,-4.9934,-4.9928,-4.9954,-4.9969,-4.9977,-5.0012,-4.9987,-4.9999,-4.9977,-5.0044,-4.9978,-4.9988,-4.9973,-4.997,-4.9972,-5.0056,-5.0058,-5.006,-5.0062,0,-5.0085,-5.0066,-5.0078,-5.0085,-5.0095,-5.0098,-5.0098,-5.0111,-5.0063,-5.0078,-5.0096,-5.0104,-5.0119,-5.0134,-5.014,-5.0131,-5.0088,-5.0084,-5.0095,-5.0105,-5.0114,-5.0106,-4.9907,-5.0078,-5.0076,-5.0075,-5.0074,-5.0074,-5.0204,-5.023,-5.0218,-5.0233,-5.0228,-5.0229,-5.025,-5.023,-5.0245,-5.0252,-5.0227,-5.0251,-5.0242,-5.0245,-5.0242,-5.026,-5.023,-5.0249,-5.0253,-5.0257,-5.0263,-5.0115,-5.0262,-5.0261,-5.0261,-5.026,-5.026,0,-5.0357,-5.0346,-5.0361,-5.0361,-5.0373,-5.0333,-5.0331,-5.0343,-5.0365,-5.0361,-5.0371,-5.0392,-5.0407,-5.0384,-5.0395,-5.0414,-5.0395,-5.0418,-5.0414,-5.0412,-5.0292,-5.0278,-5.0433,-5.0433,-5.0433,-5.0433,-5.0433,-5.0433,-5.0437,-5.0478,-5.0458,-5.0497,-5.0486,-5.0508,-5.051,-5.051,-5.0506,-5.0532,-5.0543,-5.0528,-5.0516,-5.0526,-5.0538,-5.0531,-5.0535,-5.0565,-5.0551,-5.0438,-5.0421,-5.0404,-5.0391,-5.0567,-5.0568,-5.0668,-5.0669,-5.067]},{"header":{"parameterUnit":"m.s-1","parameterCategory":1,"la1":30.2991,"la2":30.254,"lo1":-89.0895,"lo2":-89.0444,"dy":0.0017,"dx":0.0017,"nx":28,"ny":28,"refTime":"2024-12-04T09:00:00:Z","depth":0,"parameterNumber":3,"parameterNumberName":"V-component_of_WINDS"},"data":[0,0,0,0,0,0,0,0,0,0,0,0,0,0,0,0,0,0,0,0,0,0,0,0,0,0,0,0,0,0,0,0,0,0,0,0,0,0,0,0,0,0,0,0,0,0,0,0,0,0,0,0,0,0,0,0,0,0,1.957,1.957,0,1.9573,1.9573,1.9573,1.9562,1.9561,1.9561,1.9561,1.9562,1.9563,1.9563,0,0,0,0,0,0,0,0,0,0,0,0,0,1.9555,1.9555,1.957,1.957,1.957,1.9573,1.9573,1.9573,1.9562,1.9561,1.9561,1.9561,1.9562,1.9563,1.9563,0,0,0,0,0,0,0,0,0,0,0,0,0,1.956,1.9555,1.957,1.9565,1.9564,1.9573,1.9573,1.9573,1.9562,1.9561,1.9561,1.956,1.9562,1.9563,1.9563,1.9576,0,0,1.9565,1.9565,0,0,0,0,0,0,0,0,1.956,1.956,1.9565,1.9565,1.9564,1.9566,1.9568,1.9574,1.9562,1.9563,1.9561,1.956,1.9564,1.9564,1.9566,1.9576,1.9576,1.9565,1.9565,1.9565,1.9566,0,0,0,0,0,0,0,1.9559,1.956,1.9571,1.9565,1.9565,1.9562,1.9563,1.9569,1.9566,1.9563,1.9562,1.9562,1.9564,1.9565,1.9566,1.9577,1.9565,1.9565,1.9566,1.9566,1.9601,1.9602,0,0,0,0,0,0,1.956,1.956,1.9571,1.9571,1.9561,1.9563,1.9563,1.9566,1.9566,1.9565,1.9563,1.9562,1.9565,1.9565,1.9566,1.9584,1.9565,1.9566,1.9566,1.9601,1.9601,1.9602,0,0,0,0,0,0,1.9559,1.9561,1.9571,1.9565,1.9566,1.9564,1.9567,1.9567,1.9568,1.9566,1.9565,1.9565,1.9564,1.9565,1.9575,1.9584,1.9566,1.9567,1.96,1.9601,1.9602,1.9618,0,0,0,0,0,0,1.9559,1.9561,1.9565,1.9566,1.9567,1.9579,1.9568,1.9567,1.9569,1.9568,1.9568,1.9568,1.9564,1.9574,1.9575,1.9584,1.9567,1.9599,1.96,1.9601,1.9617,1.9619,1.9622,0,0,0,0,0,1.9559,1.9569,1.9566,1.9567,1.9572,1.958,1.958,1.9576,1.957,1.9575,1.9574,1.9568,1.9582,1.9575,1.9576,1.9585,1.9599,1.96,1.9601,1.9615,1.9619,1.9622,0,0,0,0,0,0,1.9568,1.9568,1.9565,1.9575,1.9578,1.9578,1.9584,1.9579,1.9583,1.9582,1.9576,1.9576,1.9588,1.9587,1.9579,1.96,1.9589,1.9591,1.96,1.9603,1.9605,1.9606,1.9567,0,0,0,0,0,1.9572,1.9578,1.9577,1.9587,1.9588,1.9586,1.9589,1.9586,1.9588,1.9588,1.9588,1.959,1.9595,1.9599,1.9603,1.9616,1.9617,1.9623,1.9626,1.9628,1.963,1.964,1.9643,1.9607,1.9607,1.9607,0,0,1.9579,1.958,1.9583,1.9589,1.959,1.9597,1.9587,1.9593,1.9599,1.9589,1.9599,1.9599,1.9601,1.9613,1.9618,1.9613,1.964,1.963,1.9631,1.9632,1.9642,1.9645,1.9648,1.9608,1.9607,1.9607,0,0,1.9595,1.9596,1.9605,1.9607,1.961,1.9609,1.9612,1.9613,1.9613,1.9623,1.9617,1.9623,1.9631,1.9634,1.9636,1.9658,1.9653,1.9659,1.9672,1.9682,1.9685,1.9688,1.9698,1.9701,1.9661,1.9661,1.9661,0,1.9603,1.9614,1.961,1.9619,1.9622,1.9615,1.9625,1.9628,1.9631,1.9634,1.9629,1.9641,1.9642,1.9656,1.9662,1.9663,1.9667,1.9659,1.9685,1.9687,1.969,1.9699,1.9703,1.9662,1.9662,1.9661,1.9661,0,1.9625,1.9632,1.9639,1.9645,1.9649,1.9658,1.9657,1.9662,1.9659,1.9659,1.9671,1.9672,1.9678,1.9681,1.9677,1.9695,1.9693,1.9686,1.9676,1.9694,1.9703,1.9707,1.9663,1.9663,1.9662,1.9662,0,0,1.9646,1.9652,1.9655,1.9659,1.9663,1.9669,1.9679,1.9686,1.9691,1.9695,1.9704,1.9713,1.9708,1.9711,1.9708,1.9716,1.9736,1.9709,1.9709,1.9716,1.9759,1.9766,1.977,1.9733,1.9733,1.9734,1.976,0,1.9664,1.9682,1.968,1.9697,1.9705,1.97,1.9709,1.9713,1.9714,1.9721,1.9722,1.9729,1.9721,1.9723,1.9731,1.9732,1.9745,1.973,1.9742,1.9743,1.9744,1.9774,1.978,1.9805,1.9763,1.9764,1.9764,0,1.9687,1.9694,1.9712,1.9718,1.9721,1.9729,1.9738,1.9744,1.9749,1.975,1.9755,1.9751,1.9762,1.9752,1.9768,1.9758,1.9763,1.9764,1.9765,1.9768,1.9756,1.9779,1.9812,1.9817,1.9769,1.9769,1.9768,0,1.9703,1.9717,1.973,1.9733,1.974,1.9747,1.975,1.9754,1.976,1.9767,1.9771,1.9778,1.9783,1.979,1.9789,1.9781,1.9807,1.9795,1.9809,1.9809,1.9815,1.9815,1.9852,1.9815,1.9815,1.9815,1.9815,0,1.9724,1.9736,1.9738,1.9746,1.9761,1.9759,1.9773,1.9776,1.9781,1.9791,1.9786,1.9795,1.9793,1.9802,1.9802,1.9817,1.9818,1.982,1.982,1.9821,1.9822,1.9826,1.9825,1.9816,1.9816,1.9816,1.9816,0,1.9745,1.9746,1.9761,1.9768,1.977,1.978,1.9786,1.9794,1.9796,1.9808,1.9811,1.9813,1.9825,1.9825,1.9836,1.9837,1.9856,1.9853,1.9855,1.9855,1.987,1.9869,1.9912,1.9919,1.9876,1.9876,1.9877,0,1.9758,1.9768,1.9777,1.9783,1.9788,1.9798,1.9804,1.9804,1.9811,1.982,1.9828,1.984,1.9849,1.9867,1.987,1.988,1.9879,1.9893,1.988,1.9882,1.9882,1.9882,1.9885,1.9896,1.9896,1.9897,1.9897,0,1.9784,1.9785,1.9795,1.9806,1.9814,1.9823,1.983,1.9836,1.9837,1.9846,1.9858,1.9866,1.988,1.9892,1.9902,1.9906,1.9903,1.9901,1.9905,1.9908,1.9909,1.9911,1.9864,1.99,1.99,1.99,1.9899,1.9899,1.9803,1.9812,1.9821,1.9833,1.9839,1.9848,1.9858,1.9862,1.9872,1.9885,1.9884,1.9899,1.9907,1.9921,1.9926,1.9938,1.9933,1.9938,1.994,1.9941,1.9945,1.9906,1.9939,1.9939,1.9939,1.9939,1.9939,0,1.983,1.9836,1.9847,1.986,1.987,1.9867,1.9876,1.9885,1.9898,1.9906,1.9917,1.9933,1.9945,1.995,1.9963,1.9972,1.9971,1.9975,1.9975,1.9977,1.9947,1.9943,1.9976,1.9976,1.9976,1.9976,1.9976,1.9976,1.9845,1.9862,1.9865,1.9887,1.9892,1.9908,1.9914,1.9923,1.993,1.9948,1.9959,1.9963,1.9971,1.9985,1.9997,1.9998,2.0004,2.001,2.0011,1.9982,1.9979,1.9975,1.9972,2.001,2.001,2.004,2.0041,2.0041]}]]